Time,TemperatureF,DewpointF,PressureIn,WindDirection,WindDirectionDegrees,WindSpeedMPH,WindSpeedGustMPH,Humidity,HourlyPrecipIn,Conditions,Clouds,dailyrainin,SolarRadiationWatts/m^2,SoftwareType,DateUTC
2013-09-10 00:03:00,83.0,63.0,-100.00,SSW,205,4.0,9.0,51,0.00,,,0.00,0.000000,,2013-09-10 05:03:00,
2013-09-10 00:43:00,81.0,62.0,-100.00,SW,214,3.0,9.0,53,0.00,,,0.00,0.000000,,2013-09-10 05:43:00,
2013-09-10 00:53:00,81.0,62.0,-100.00,SW,214,3.0,9.0,53,0.00,,,0.00,0.000000,,2013-09-10 05:53:00,
2013-09-10 01:03:00,81.0,62.0,-100.00,SW,214,3.0,9.0,53,0.00,,,0.00,0.000000,,2013-09-10 06:03:00,
2013-09-10 01:43:00,79.0,63.0,-100.00,SSW,207,2.0,7.0,58,0.00,,,0.00,0.000000,,2013-09-10 06:43:00,
2013-09-10 01:52:00,79.0,63.0,-100.00,SSW,207,2.0,7.0,58,0.00,,,0.00,0.000000,,2013-09-10 06:52:00,
2013-09-10 02:01:00,79.0,63.0,-100.00,SSW,207,2.0,7.0,58,0.00,,,0.00,0.000000,,2013-09-10 07:01:00,
2013-09-10 02:42:00,77.0,64.0,-100.00,WSW,247,1.0,5.0,64,0.00,,,0.00,0.000000,,2013-09-10 07:42:00,
2013-09-10 02:52:00,77.0,64.0,-100.00,WSW,247,1.0,5.0,64,0.00,,,0.00,0.000000,,2013-09-10 07:52:00,
2013-09-10 03:02:00,77.0,64.0,-100.00,WSW,247,1.0,5.0,64,0.00,,,0.00,0.000000,,2013-09-10 08:02:00,
2013-09-10 03:42:00,75.0,65.0,-100.00,SW,229,1.0,6.0,70,0.00,,,0.00,0.000000,,2013-09-10 08:42:00,
2013-09-10 03:52:00,75.0,65.0,-100.00,SW,229,1.0,6.0,70,0.00,,,0.00,0.000000,,2013-09-10 08:52:00,
2013-09-10 04:02:00,75.0,65.0,-100.00,SW,229,1.0,6.0,70,0.00,,,0.00,0.000000,,2013-09-10 09:02:00,
2013-09-10 04:43:00,74.0,66.0,-100.00,SW,230,2.0,5.0,77,0.00,,,0.00,0.000000,,2013-09-10 09:43:00,
2013-09-10 04:54:00,74.0,66.0,-100.00,SW,230,2.0,5.0,77,0.00,,,0.00,0.000000,,2013-09-10 09:54:00,
2013-09-10 05:03:00,74.0,66.0,-100.00,SW,230,2.0,5.0,77,0.00,,,0.00,0.000000,,2013-09-10 10:03:00,
2013-09-10 05:43:00,73.0,68.0,-100.00,SW,233,1.0,5.0,84,0.00,,,0.00,0.000000,,2013-09-10 10:43:00,
2013-09-10 05:53:00,73.0,68.0,-100.00,SW,233,1.0,5.0,84,0.00,,,0.00,0.000000,,2013-09-10 10:53:00,
2013-09-10 06:03:00,73.0,68.0,-100.00,SW,233,1.0,5.0,84,0.00,,,0.00,0.000000,,2013-09-10 11:03:00,
2013-09-10 09:42:00,74.0,68.0,-100.00,West,274,4.0,12.0,83,-99.99,,,0.00,121.000000,,2013-09-10 14:42:00,
2013-09-10 09:52:00,74.0,68.0,-100.00,West,274,4.0,12.0,83,-99.99,,,0.00,121.000000,,2013-09-10 14:52:00,
2013-09-10 10:02:00,74.0,68.0,-100.00,West,274,4.0,12.0,83,-99.99,,,0.00,121.000000,,2013-09-10 15:02:00,
2013-09-10 10:43:00,77.0,67.0,-100.00,West,269,4.0,11.0,72,0.00,,,0.00,321.000000,,2013-09-10 15:43:00,
2013-09-10 10:54:00,77.0,67.0,-100.00,West,269,4.0,11.0,72,0.00,,,0.00,321.000000,,2013-09-10 15:54:00,
2013-09-10 11:03:00,77.0,67.0,-100.00,West,269,4.0,11.0,72,0.00,,,0.00,321.000000,,2013-09-10 16:03:00,
2013-09-10 11:43:00,81.0,67.0,-100.00,WNW,285,3.0,9.0,62,0.00,,,0.00,480.000000,,2013-09-10 16:43:00,
2013-09-10 11:53:00,81.0,67.0,-100.00,WNW,285,3.0,9.0,62,0.00,,,0.00,480.000000,,2013-09-10 16:53:00,
2013-09-10 12:03:00,81.0,67.0,-100.00,WNW,285,3.0,9.0,62,0.00,,,0.00,480.000000,,2013-09-10 17:03:00,
2013-09-10 12:43:00,84.0,64.0,-100.00,West,259,4.0,9.0,52,0.00,,,0.00,664.000000,,2013-09-10 17:43:00,
2013-09-10 12:53:00,84.0,64.0,-100.00,West,259,4.0,9.0,52,0.00,,,0.00,664.000000,,2013-09-10 17:53:00,
2013-09-10 13:02:00,84.0,64.0,-100.00,West,259,4.0,9.0,52,0.00,,,0.00,664.000000,,2013-09-10 18:02:00,
2013-09-10 13:43:00,84.0,62.0,-100.00,WNW,291,4.0,12.0,48,0.00,,,0.00,510.000000,,2013-09-10 18:43:00,
2013-09-10 13:52:00,84.0,62.0,-100.00,WNW,291,4.0,12.0,48,0.00,,,0.00,510.000000,,2013-09-10 18:52:00,
2013-09-10 14:02:00,84.0,62.0,-100.00,WNW,291,4.0,12.0,48,0.00,,,0.00,510.000000,,2013-09-10 19:02:00,
2013-09-10 14:42:00,85.0,60.0,-100.00,West,260,5.0,15.0,43,0.00,,,0.00,509.000000,,2013-09-10 19:42:00,
2013-09-10 14:52:00,85.0,60.0,-100.00,West,260,5.0,15.0,43,0.00,,,0.00,509.000000,,2013-09-10 19:52:00,
2013-09-10 15:02:00,85.0,60.0,-100.00,West,260,5.0,15.0,43,0.00,,,0.00,509.000000,,2013-09-10 20:02:00,
2013-09-10 15:42:00,83.0,61.0,-100.00,NW,321,7.0,15.0,48,0.00,,,0.00,333.000000,,2013-09-10 20:42:00,
2013-09-10 15:52:00,83.0,61.0,-100.00,NW,321,7.0,15.0,48,0.00,,,0.00,333.000000,,2013-09-10 20:52:00,
2013-09-10 16:02:00,83.0,61.0,-100.00,NW,321,7.0,15.0,48,0.00,,,0.00,333.000000,,2013-09-10 21:02:00,
2013-09-10 16:44:00,81.0,63.0,-100.00,NW,309,4.0,15.0,54,0.00,,,0.00,263.000000,,2013-09-10 21:44:00,
2013-09-10 16:54:00,81.0,63.0,-100.00,NW,309,4.0,15.0,54,0.00,,,0.00,263.000000,,2013-09-10 21:54:00,
2013-09-10 17:04:00,81.0,63.0,-100.00,NW,309,4.0,15.0,54,0.00,,,0.00,263.000000,,2013-09-10 22:04:00,
2013-09-10 17:42:00,81.0,64.0,-100.00,WNW,283,2.0,9.0,56,0.00,,,0.00,147.000000,,2013-09-10 22:42:00,
2013-09-10 17:54:00,81.0,64.0,-100.00,WNW,283,2.0,9.0,56,0.00,,,0.00,147.000000,,2013-09-10 22:54:00,
2013-09-10 18:03:00,81.0,64.0,-100.00,WNW,283,2.0,9.0,56,0.00,,,0.00,147.000000,,2013-09-10 23:03:00,
2013-09-10 18:42:00,79.0,62.0,-100.00,WSW,258,2.0,6.0,56,0.00,,,0.00,66.000000,,2013-09-10 23:42:00,
2013-09-10 18:53:00,79.0,62.0,-100.00,WSW,258,2.0,6.0,56,0.00,,,0.00,66.000000,,2013-09-10 23:53:00,
2013-09-10 19:02:00,79.0,62.0,-100.00,WSW,258,2.0,6.0,56,0.00,,,0.00,66.000000,,2013-09-11 00:02:00,
2013-09-10 19:42:00,77.0,61.0,-100.00,WSW,247,1.0,5.0,57,0.00,,,0.00,28.000000,,2013-09-11 00:42:00,
2013-09-10 19:52:00,77.0,61.0,-100.00,WSW,247,1.0,5.0,57,0.00,,,0.00,28.000000,,2013-09-11 00:52:00,
2013-09-10 20:02:00,77.0,61.0,-100.00,WSW,247,1.0,5.0,57,0.00,,,0.00,28.000000,,2013-09-11 01:02:00,
2013-09-10 20:42:00,75.0,62.0,-100.00,SW,230,1.0,4.0,65,0.00,,,0.00,2.000000,,2013-09-11 01:42:00,
2013-09-10 20:53:00,75.0,62.0,-100.00,SW,230,1.0,4.0,65,0.00,,,0.00,2.000000,,2013-09-11 01:53:00,
2013-09-10 21:02:00,75.0,62.0,-100.00,SW,230,1.0,4.0,65,0.00,,,0.00,2.000000,,2013-09-11 02:02:00,
2013-09-10 21:43:00,73.0,63.0,-100.00,SW,225,1.0,3.0,70,0.00,,,0.00,0.000000,,2013-09-11 02:43:00,
2013-09-10 21:52:00,73.0,63.0,-100.00,SW,225,1.0,3.0,70,0.00,,,0.00,0.000000,,2013-09-11 02:52:00,
2013-09-10 22:02:00,73.0,63.0,-100.00,SW,225,1.0,3.0,70,0.00,,,0.00,0.000000,,2013-09-11 03:02:00,
2013-09-10 22:45:00,73.0,63.0,-100.00,WSW,240,2.0,6.0,71,0.00,,,0.00,0.000000,,2013-09-11 03:45:00,
2013-09-10 22:55:00,73.0,63.0,-100.00,WSW,240,2.0,6.0,71,0.00,,,0.00,0.000000,,2013-09-11 03:55:00,
2013-09-10 23:04:00,73.0,63.0,-100.00,WSW,240,2.0,6.0,71,0.00,,,0.00,0.000000,,2013-09-11 04:04:00,
2013-09-10 23:44:00,72.0,62.0,-100.00,SW,219,1.0,7.0,72,0.00,,,0.00,0.000000,,2013-09-11 04:44:00,
2013-09-10 23:54:00,72.0,62.0,-100.00,SW,219,1.0,7.0,72,0.00,,,0.00,0.000000,,2013-09-11 04:54:00,